QPF
0.04 0.05 0.08 0.06 0.08 0.09 0.08 0.09 0.10 0.09 0.10 0.11 0.09 0.08 0.13 0.22 0.21 0.17 0.17 0.18 0.21 0.21 0.17 0.14 0.10 0.08 0.09 0.11 0.13 0.10 0.07 0.06 0.07 0.07 0.09 0.09 0.08 0.07 0.08 0.11 0.24 0.24 0.11
0.03 0.04 0.06 0.04 0.07 0.10 0.10 0.11 0.10 0.11 0.12 0.12 0.09 0.07 0.08 0.15 0.16 0.18 0.18 0.19 0.18 0.15 0.12 0.11 0.10 0.09 0.08 0.12 0.12 0.10 0.09 0.08 0.09 0.12 0.16 0.11 0.07 0.07 0.11 0.12 0.16 0.20 0.14
0.03 0.03 0.04 0.04 0.06 0.09 0.10 0.09 0.08 0.10 0.11 0.10 0.09 0.09 0.09 0.12 0.11 0.12 0.12 0.11 0.12 0.10 0.09 0.08 0.09 0.11 0.11 0.16 0.14 0.11 0.11 0.09 0.09 0.11 0.12 0.05 0.05 0.08 0.11 0.10 0.13 0.15 0.16
0.01 0.02 0.03 0.05 0.07 0.09 0.08 0.07 0.06 0.05 0.06 0.06 0.06 0.07 0.07 0.09 0.09 0.10 0.09 0.10 0.11 0.10 0.08 0.08 0.08 0.14 0.20 0.20 0.15 0.13 0.11 0.08 0.06 0.05 0.03 0.02 0.03 0.08 0.09 0.09 0.11 0.13 0.14
0.02 0.03 0.04 0.07 0.10 0.11 0.08 0.06 0.05 0.04 0.05 0.05 0.04 0.05 0.06 0.07 0.09 0.08 0.08 0.09 0.12 0.12 0.10 0.08 0.10 0.18 0.22 0.16 0.13 0.13 0.11 0.10 0.08 0.04 0.02 0.02 0.03 0.06 0.08 0.08 0.10 0.13 0.12
0.04 0.04 0.07 0.11 0.11 0.10 0.06 0.04 0.04 0.04 0.05 0.05 0.05 0.06 0.09 0.09 0.08 0.07 0.07 0.06 0.07 0.09 0.09 0.08 0.10 0.14 0.14 0.11 0.11 0.11 0.11 0.10 0.06 0.03 0.02 0.02 0.03 0.05 0.06 0.06 0.07 0.12 0.10
0.05 0.05 0.08 0.11 0.09 0.08 0.08 0.07 0.05 0.05 0.06 0.06 0.05 0.06 0.08 0.09 0.08 0.07 0.07 0.05 0.04 0.06 0.08 0.08 0.09 0.12 0.13 0.13 0.13 0.12 0.10 0.07 0.04 0.03 0.03 0.02 0.02 0.06 0.06 0.06 0.06 0.10 0.09
0.03 0.03 0.04 0.08 0.08 0.07 0.08 0.08 0.07 0.07 0.07 0.09 0.08 0.07 0.06 0.06 0.07 0.07 0.07 0.06 0.04 0.05 0.06 0.08 0.08 0.11 0.16 0.16 0.14 0.13 0.10 0.05 0.02 0.04 0.04 0.03 0.04 0.06 0.07 0.06 0.05 0.08 0.07
0.03 0.03 0.03 0.05 0.06 0.05 0.06 0.07 0.08 0.09 0.10 0.13 0.11 0.09 0.06 0.05 0.07 0.06 0.06 0.07 0.04 0.06 0.07 0.06 0.06 0.09 0.13 0.17 0.14 0.11 0.09 0.06 0.02 0.03 0.05 0.05 0.05 0.06 0.06 0.06 0.05 0.05 0.06
0.03 0.04 0.04 0.04 0.03 0.02 0.03 0.06 0.08 0.14 0.15 0.16 0.13 0.11 0.08 0.07 0.07 0.09 0.09 0.08 0.06 0.07 0.06 0.06 0.05 0.06 0.09 0.12 0.12 0.10 0.09 0.08 0.03 0.02 0.03 0.04 0.05 0.04 0.04 0.05 0.05 0.05 0.05
0.04 0.03 0.04 0.04 0.04 0.02 0.03 0.03 0.09 0.20 0.19 0.16 0.12 0.09 0.07 0.04 0.03 0.04 0.07 0.09 0.11 0.09 0.08 0.08 0.08 0.07 0.14 0.15 0.15 0.14 0.13 0.08 0.04 0.03 0.03 0.04 0.06 0.05 0.05 0.04 0.03 0.05 0.05
0.04 0.03 0.03 0.04 0.04 0.02 0.03 0.04 0.09 0.14 0.15 0.09 0.05 0.04 0.03 0.03 0.02 0.01 0.04 0.09 0.10 0.11 0.10 0.10 0.10 0.08 0.20 0.26 0.26 0.25 0.17 0.13 0.05 0.03 0.03 0.05 0.07 0.06 0.05 0.05 0.05 0.05 0.06
0.04 0.02 0.02 0.03 0.03 0.03 0.03 0.04 0.05 0.06 0.06 0.03 0.02 0.02 0.01 0.01 0.01 0.01 0.02 0.04 0.05 0.07 0.08 0.08 0.08 0.05 0.15 0.35 0.37 0.30 0.19 0.14 0.07 0.03 0.04 0.05 0.07 0.08 0.08 0.08 0.07 0.09 0.10
0.03 0.02 0.02 0.02 0.02 0.02 0.01 0.01 0.01 0.02 0.04 0.03 0.02 0.01 0.01 0.01 0.01 0.01 0.01 0.01 0.03 0.02 0.03 0.04 0.04 0.04 0.13 0.25 0.28 0.23 0.18 0.13 0.07 0.03 0.05 0.06 0.08 0.08 0.08 0.09 0.09 0.11 0.11
0.02 0.02 0.01 0.01 0.02 0.02 0.01 0.01 0.01 0.02 0.03 0.03 0.02 0.01 0.01 0.01 0.01 0.01 0.01 0.01 0.02 0.02 0.02 0.03 0.04 0.04 0.11 0.17 0.17 0.15 0.11 0.08 0.05 0.04 0.04 0.08 0.08 0.07 0.09 0.11 0.11 0.10 0.11
0.01 0.02 0.02 0.01 0.01 0.01 0.02 0.01 0.02 0.02 0.03 0.03 0.02 0.02 0.01 0.01 0.01 0.01 0.01 0.02 0.02 0.03 0.02 0.02 0.03 0.03 0.05 0.10 0.10 0.09 0.09 0.07 0.05 0.04 0.04 0.07 0.11 0.10 0.09 0.10 0.13 0.13 0.10
0.02 0.02 0.03 0.02 0.01 0.01 0.01 0.01 0.03 0.03 0.03 0.03 0.02 0.02 0.04 0.03 0.02 0.01 0.02 0.02 0.02 0.03 0.03 0.03 0.02 0.03 0.04 0.05 0.09 0.10 0.09 0.09 0.08 0.08 0.06 0.07 0.08 0.08 0.09 0.09 0.12 0.13 0.12
0.01 0.02 0.03 0.02 0.02 0.01 0.01 0.01 0.02 0.03 0.03 0.02 0.02 0.03 0.05 0.05 0.03 0.02 0.03 0.02 0.02 0.03 0.04 0.04 0.03 0.02 0.04 0.05 0.07 0.08 0.08 0.09 0.10 0.10 0.08 0.09 0.08 0.06 0.07 0.12 0.14 0.13 0.13
0.01 0.01 0.02 0.03 0.02 0.02 0.01 0.02 0.02 0.03 0.04 0.04 0.03 0.02 0.03 0.03 0.03 0.02 0.02 0.02 0.02 0.03 0.04 0.03 0.03 0.03 0.03 0.04 0.06 0.09 0.10 0.10 0.11 0.08 0.06 0.07 0.06 0.06 0.07 0.12 0.17 0.17 0.18
0.00 0.00 0.01 0.02 0.02 0.02 0.03 0.02 0.03 0.04 0.03 0.03 0.03 0.03 0.02 0.02 0.02 0.02 0.02 0.02 0.02 0.03 0.03 0.03 0.03 0.03 0.03 0.04 0.06 0.10 0.11 0.11 0.10 0.07 0.06 0.06 0.07 0.06 0.08 0.11 0.13 0.20 0.24
0.00 0.00 0.01 0.01 0.02 0.02 0.02 0.01 0.02 0.02 0.02 0.02 0.03 0.04 0.04 0.03 0.02 0.02 0.03 0.04 0.03 0.03 0.04 0.04 0.03 0.03 0.04 0.04 0.06 0.07 0.09 0.10 0.08 0.06 0.05 0.06 0.05 0.04 0.06 0.09 0.12 0.18 0.25
0.00 0.01 0.01 0.02 0.02 0.02 0.02 0.03 0.03 0.03 0.03 0.04 0.05 0.05 0.05 0.05 0.03 0.03 0.04 0.04 0.03 0.04 0.05 0.05 0.05 0.04 0.05 0.05 0.05 0.05 0.05 0.05 0.05 0.05 0.04 0.03 0.04 0.03 0.04 0.05 0.05 0.07 0.13
0.01 0.02 0.02 0.02 0.02 0.03 0.03 0.03 0.03 0.03 0.04 0.05 0.05 0.05 0.05 0.05 0.04 0.03 0.04 0.04 0.04 0.04 0.05 0.06 0.05 0.06 0.06 0.05 0.05 0.04 0.03 0.03 0.04 0.04 0.04 0.03 0.03 0.04 0.04 0.04 0.03 0.03 0.02
0.02 0.03 0.03 0.02 0.02 0.02 0.03 0.03 0.02 0.02 0.03 0.05 0.06 0.05 0.05 0.05 0.05 0.04 0.04 0.04 0.06 0.06 0.05 0.06 0.05 0.04 0.04 0.04 0.03 0.03 0.03 0.02 0.02 0.02 0.01 0.02 0.03 0.03 0.04 0.05 0.04 0.03 0.03
0.02 0.02 0.03 0.04 0.03 0.04 0.03 0.01 0.01 0.01 0.02 0.03 0.04 0.04 0.05 0.05 0.05 0.05 0.04 0.04 0.04 0.04 0.05 0.05 0.04 0.03 0.03 0.03 0.02 0.02 0.01 0.01 0.02 0.01 0.01 0.01 0.02 0.02 0.03 0.04 0.03 0.02 0.02
0.02 0.02 0.01 0.02 0.03 0.04 0.04 0.02 0.01 0.02 0.02 0.03 0.02 0.02 0.02 0.03 0.03 0.04 0.05 0.06 0.04 0.03 0.03 0.03 0.04 0.02 0.03 0.03 0.02 0.02 0.01 0.01 0.02 0.02 0.02 0.01 0.01 0.01 0.02 0.02 0.03 0.03 0.03
MSLP
1010.27 1009.60 1009.12 1008.86 1008.81 1008.92 1009.12 1009.34 1009.55 1009.72 1009.88 1010.05 1010.28 1010.59 1010.98 1011.42 1011.89 1012.33 1012.70 1013.00 1013.22 1013.40 1013.58 1013.79 1014.05 1014.38 1014.75 1015.13 1015.50 1015.82 1016.09 1016.30 1016.47 1016.62 1016.77 1016.94 1017.11 1017.31 1017.51 1017.71 1017.90 1018.09 1018.27
1010.25 1009.69 1009.31 1009.13 1009.14 1009.28 1009.49 1009.70 1009.88 1010.02 1010.16 1010.33 1010.58 1010.92 1011.35 1011.84 1012.35 1012.81 1013.20 1013.49 1013.69 1013.85 1013.99 1014.15 1014.37 1014.66 1014.98 1015.33 1015.67 1015.98 1016.25 1016.47 1016.65 1016.83 1017.00 1017.19 1017.39 1017.60 1017.81 1018.00 1018.19 1018.37 1018.55
1010.16 1009.74 1009.47 1009.39 1009.47 1009.66 1009.89 1010.10 1010.27 1010.41 1010.53 1010.71 1010.96 1011.32 1011.77 1012.29 1012.81 1013.28 1013.67 1013.95 1014.13 1014.26 1014.36 1014.49 1014.67 1014.90 1015.18 1015.50 1015.81 1016.10 1016.36 1016.60 1016.82 1017.03 1017.25 1017.47 1017.70 1017.92 1018.13 1018.33 1018.51 1018.68 1018.86
1010.08 1009.78 1009.62 1009.65 1009.81 1010.05 1010.31 1010.54 1010.71 1010.84 1010.96 1011.13 1011.38 1011.74 1012.20 1012.71 1013.23 1013.70 1014.08 1014.34 1014.52 1014.62 1014.70 1014.80 1014.95 1015.15 1015.39 1015.67 1015.96 1016.24 1016.50 1016.76 1017.01 1017.27 1017.53 1017.79 1018.05 1018.29 1018.50 1018.68 1018.85 1019.01 1019.19
1010.07 1009.88 1009.83 1009.94 1010.17 1010.46 1010.75 1010.99 1011.16 1011.29 1011.40 1011.56 1011.81 1012.15 1012.59 1013.09 1013.59 1014.05 1014.41 1014.67 1014.84 1014.94 1015.02 1015.12 1015.25 1015.43 1015.65 1015.90 1016.17 1016.44 1016.71 1016.99 1017.27 1017.56 1017.86 1018.15 1018.43 1018.67 1018.87 1019.05 1019.19 1019.34 1019.51
1010.21 1010.09 1010.12 1010.29 1010.56 1010.87 1011.17 1011.42 1011.59 1011.71 1011.81 1011.96 1012.19 1012.52 1012.94 1013.41 1013.89 1014.32 1014.67 1014.93 1015.10 1015.22 1015.32 1015.43 1015.57 1015.76 1015.97 1016.22 1016.47 1016.73 1017.00 1017.29 1017.59 1017.90 1018.22 1018.53 1018.81 1019.04 1019.23 1019.38 1019.51 1019.64 1019.79
1010.52 1010.45 1010.51 1010.70 1010.98 1011.30 1011.58 1011.81 1011.97 1012.07 1012.17 1012.32 1012.54 1012.85 1013.25 1013.69 1014.14 1014.55 1014.89 1015.14 1015.33 1015.48 1015.61 1015.75 1015.92 1016.13 1016.35 1016.59 1016.84 1017.09 1017.35 1017.63 1017.93 1018.24 1018.56 1018.87 1019.15 1019.37 1019.54 1019.66 1019.76 1019.86 1020.00
1011.00 1010.95 1011.01 1011.20 1011.45 1011.73 1011.98 1012.17 1012.30 1012.39 1012.49 1012.63 1012.85 1013.16 1013.54 1013.96 1014.38 1014.76 1015.08 1015.34 1015.54 1015.71 1015.88 1016.07 1016.27 1016.50 1016.74 1016.99 1017.22 1017.46 1017.70 1017.96 1018.24 1018.54 1018.85 1019.14 1019.40 1019.61 1019.75 1019.86 1019.93 1020.01 1020.13
1011.58 1011.54 1011.59 1011.74 1011.95 1012.17 1012.36 1012.51 1012.61 1012.69 1012.78 1012.93 1013.16 1013.47 1013.84 1014.24 1014.64 1014.99 1015.29 1015.53 1015.74 1015.93 1016.13 1016.35 1016.59 1016.85 1017.11 1017.35 1017.58 1017.79 1018.00 1018.22 1018.47 1018.74 1019.02 1019.30 1019.54 1019.74 1019.88 1019.97 1020.03 1020.10 1020.20
1012.18 1012.15 1012.19 1012.31 1012.46 1012.62 1012.75 1012.84 1012.91 1012.98 1013.08 1013.25 1013.49 1013.81 1014.18 1014.56 1014.92 1015.25 1015.51 1015.73 1015.93 1016.13 1016.34 1016.59 1016.86 1017.14 1017.41 1017.65 1017.86 1018.05 1018.22 1018.39 1018.59 1018.82 1019.08 1019.33 1019.57 1019.76 1019.91 1020.01 1020.08 1020.15 1020.24
1012.72 1012.71 1012.75 1012.85 1012.95 1013.06 1013.13 1013.18 1013.23 1013.29 1013.40 1013.58 1013.84 1014.17 1014.53 1014.89 1015.23 1015.51 1015.74 1015.93 1016.11 1016.30 1016.53 1016.79 1017.07 1017.37 1017.64 1017.88 1018.07 1018.22 1018.34 1018.47 1018.61 1018.80 1019.02 1019.26 1019.50 1019.71 1019.89 1020.01 1020.11 1020.19 1020.29
1013.12 1013.15 1013.22 1013.30 1013.39 1013.45 1013.49 1013.52 1013.54 1013.61 1013.73 1013.93 1014.20 1014.53 1014.88 1015.22 1015.52 1015.76 1015.96 1016.12 1016.28 1016.46 1016.68 1016.95 1017.25 1017.55 1017.83 1018.05 1018.22 1018.33 1018.40 1018.47 1018.56 1018.70 1018.89 1019.12 1019.37 1019.61 1019.82 1020.00 1020.13 1020.24 1020.36
1013.34 1013.43 1013.54 1013.64 1013.72 1013.77 1013.80 1013.81 1013.84 1013.91 1014.04 1014.25 1014.52 1014.84 1015.17 1015.48 1015.75 1015.96 1016.13 1016.27 1016.41 1016.60 1016.82 1017.10 1017.41 1017.72 1017.99 1018.20 1018.34 1018.41 1018.43 1018.45 1018.48 1018.57 1018.73 1018.94 1019.20 1019.47 1019.73 1019.96 1020.15 1020.30 1020.44
1013.39 1013.54 1013.69 1013.82 1013.92 1013.99 1014.03 1014.05 1014.09 1014.17 1014.31 1014.51 1014.77 1015.07 1015.37 1015.65 1015.89 1016.08 1016.23 1016.37 1016.52 1016.72 1016.96 1017.26 1017.58 1017.89 1018.16 1018.36 1018.47 1018.50 1018.48 1018.44 1018.42 1018.45 1018.56 1018.75 1019.01 1019.30 1019.60 1019.88 1020.12 1020.32 1020.48
1013.31 1013.50 1013.69 1013.85 1013.98 1014.08 1014.15 1014.21 1014.27 1014.37 1014.51 1014.70 1014.93 1015.19 1015.46 1015.70 1015.92 1016.10 1016.26 1016.42 1016.60 1016.83 1017.11 1017.43 1017.77 1018.09 1018.36 1018.54 1018.63 1018.62 1018.55 1018.46 1018.38 1018.36 1018.42 1018.57 1018.80 1019.10 1019.42 1019.73 1020.01 1020.25 1020.44
1013.15 1013.36 1013.56 1013.75 1013.91 1014.05 1014.17 1014.27 1014.37 1014.49 1014.64 1014.81 1015.01 1015.22 1015.44 1015.65 1015.85 1016.04 1016.22 1016.43 1016.66 1016.94 1017.26 1017.62 1017.97 1018.30 1018.56 1018.73 1018.80 1018.76 1018.66 1018.51 1018.38 1018.30 1018.30 1018.40 1018.59 1018.85 1019.16 1019.48 1019.78 1020.04 1020.26
1012.98 1013.18 1013.37 1013.56 1013.75 1013.93 1014.11 1014.27 1014.42 1014.57 1014.72 1014.88 1015.03 1015.20 1015.37 1015.54 1015.73 1015.93 1016.16 1016.41 1016.71 1017.04 1017.41 1017.79 1018.16 1018.49 1018.75 1018.90 1018.95 1018.89 1018.76 1018.59 1018.41 1018.27 1018.21 1018.24 1018.37 1018.57 1018.84 1019.13 1019.42 1019.68 1019.89
1012.87 1013.01 1013.17 1013.35 1013.55 1013.77 1014.01 1014.23 1014.45 1014.64 1014.80 1014.94 1015.06 1015.17 1015.30 1015.44 1015.61 1015.83 1016.09 1016.40 1016.75 1017.14 1017.54 1017.95 1018.32 1018.63 1018.87 1019.01 1019.05 1018.99 1018.85 1018.66 1018.46 1018.28 1018.16 1018.12 1018.16 1018.29 1018.48 1018.70 1018.95 1019.18 1019.38
1012.83 1012.90 1013.01 1013.16 1013.36 1013.62 1013.91 1014.21 1014.49 1014.73 1014.91 1015.04 1015.13 1015.20 1015.28 1015.39 1015.55 1015.77 1016.07 1016.42 1016.81 1017.23 1017.65 1018.05 1018.41 1018.70 1018.91 1019.04 1019.08 1019.03 1018.90 1018.73 1018.53 1018.33 1018.16 1018.05 1018.01 1018.03 1018.12 1018.26 1018.42 1018.60 1018.76
1012.85 1012.86 1012.90 1013.02 1013.22 1013.50 1013.85 1014.21 1014.56 1014.86 1015.07 1015.20 1015.27 1015.31 1015.34 1015.42 1015.56 1015.79 1016.09 1016.47 1016.88 1017.31 1017.72 1018.09 1018.42 1018.68 1018.86 1018.98 1019.02 1019.00 1018.92 1018.79 1018.61 1018.42 1018.23 1018.07 1017.94 1017.86 1017.83 1017.85 1017.92 1018.02 1018.13
1012.91 1012.86 1012.85 1012.93 1013.13 1013.43 1013.83 1014.26 1014.67 1015.02 1015.27 1015.42 1015.47 1015.48 1015.49 1015.53 1015.65 1015.87 1016.17 1016.54 1016.95 1017.36 1017.74 1018.08 1018.36 1018.57 1018.73 1018.84 1018.91 1018.93 1018.91 1018.84 1018.73 1018.57 1018.38 1018.18 1017.98 1017.79 1017.65 1017.56 1017.51 1017.52 1017.56
1012.95 1012.88 1012.84 1012.90 1013.08 1013.41 1013.83 1014.32 1014.79 1015.19 1015.48 1015.64 1015.69 1015.69 1015.67 1015.69 1015.79 1015.98 1016.27 1016.63 1017.01 1017.39 1017.73 1018.01 1018.23 1018.41 1018.54 1018.65 1018.75 1018.83 1018.88 1018.90 1018.86 1018.76 1018.59 1018.37 1018.12 1017.85 1017.60 1017.39 1017.24 1017.15 1017.12
1012.93 1012.87 1012.82 1012.87 1013.06 1013.39 1013.84 1014.36 1014.87 1015.31 1015.63 1015.81 1015.87 1015.86 1015.83 1015.83 1015.91 1016.08 1016.35 1016.68 1017.03 1017.37 1017.66 1017.89 1018.07 1018.20 1018.32 1018.44 1018.57 1018.71 1018.85 1018.95 1018.99 1018.96 1018.82 1018.61 1018.32 1017.99 1017.66 1017.35 1017.10 1016.93 1016.84
1012.81 1012.80 1012.78 1012.83 1013.02 1013.35 1013.81 1014.35 1014.88 1015.34 1015.68 1015.88 1015.96 1015.94 1015.91 1015.90 1015.96 1016.12 1016.36 1016.67 1016.99 1017.29 1017.54 1017.73 1017.87 1017.97 1018.08 1018.21 1018.37 1018.56 1018.77 1018.95 1019.07 1019.09 1019.00 1018.80 1018.50 1018.14 1017.75 1017.38 1017.07 1016.83 1016.68
1012.59 1012.65 1012.67 1012.74 1012.94 1013.27 1013.72 1014.25 1014.79 1015.26 1015.61 1015.82 1015.90 1015.90 1015.86 1015.85 1015.90 1016.05 1016.28 1016.56 1016.86 1017.13 1017.35 1017.51 1017.63 1017.72 1017.81 1017.95 1018.14 1018.37 1018.62 1018.85 1019.03 1019.10 1019.05 1018.88 1018.58 1018.22 1017.81 1017.41 1017.07 1016.80 1016.63
1012.29 1012.42 1012.50 1012.60 1012.80 1013.12 1013.56 1014.07 1014.59 1015.06 1015.41 1015.62 1015.72 1015.72 1015.69 1015.67 1015.72 1015.86 1016.07 1016.34 1016.62 1016.88 1017.08 1017.23 1017.33 1017.42 1017.51 1017.65 1017.84 1018.08 1018.35 1018.62 1018.82 1018.93 1018.91 1018.76 1018.50 1018.16 1017.78 1017.40 1017.06 1016.80 1016.64
Thickness
5771 5776 5777 5778 5779 5779 5779 5780 5781 5781 5781 5781 5780 5780 5780 5779 5780 5780 5779 5778 5777 5776 5776 5775 5774 5774 5772 5772 5770 5769 5767 5766 5764 5763 5761 5760 5759 5757 5756 5754 5752 5751 5750
5774 5775 5776 5777 5777 5777 5778 5778 5778 5778 5778 5779 5779 5778 5778 5776 5777 5777 5776 5776 5775 5774 5774 5773 5773 5772 5771 5770 5769 5767 5766 5764 5762 5761 5760 5759 5757 5756 5754 5753 5751 5750 5748
5775 5775 5776 5776 5776 5776 5776 5776 5776 5776 5776 5776 5777 5776 5776 5775 5775 5774 5773 5773 5773 5773 5773 5773 5772 5771 5769 5768 5767 5766 5764 5762 5761 5760 5759 5757 5756 5754 5753 5752 5750 5749 5747
5775 5775 5775 5775 5776 5775 5774 5774 5774 5774 5774 5775 5774 5774 5774 5773 5773 5773 5772 5772 5772 5772 5772 5772 5771 5770 5769 5767 5765 5764 5762 5761 5759 5758 5757 5756 5755 5753 5752 5750 5749 5747 5746
5774 5774 5774 5775 5774 5774 5773 5772 5772 5772 5773 5773 5773 5772 5772 5772 5771 5771 5771 5770 5770 5771 5772 5772 5771 5769 5768 5766 5764 5762 5761 5759 5758 5756 5755 5754 5753 5752 5750 5749 5747 5745 5744
5772 5773 5773 5773 5773 5772 5771 5771 5771 5771 5771 5771 5771 5771 5770 5770 5770 5769 5769 5769 5769 5769 5770 5770 5769 5767 5766 5765 5763 5761 5759 5758 5756 5754 5753 5752 5751 5750 5749 5748 5746 5744 5743
5771 5771 5771 5771 5771 5771 5770 5769 5769 5769 5769 5769 5769 5769 5769 5769 5768 5768 5767 5767 5767 5767 5767 5767 5766 5766 5764 5763 5762 5760 5758 5757 5755 5753 5751 5750 5750 5749 5748 5747 5745 5744 5742
5770 5770 5770 5770 5770 5769 5769 5768 5768 5768 5768 5768 5768 5768 5768 5767 5766 5766 5766 5766 5765 5765 5765 5765 5764 5764 5763 5761 5760 5759 5758 5756 5754 5752 5750 5749 5749 5748 5747 5746 5745 5743 5741
5769 5769 5768 5768 5768 5768 5768 5768 5767 5767 5767 5766 5766 5766 5766 5765 5765 5764 5764 5764 5764 5764 5763 5763 5763 5762 5761 5760 5758 5757 5756 5755 5753 5752 5750 5749 5748 5747 5747 5746 5745 5743 5741
5767 5767 5767 5767 5766 5766 5766 5767 5766 5766 5766 5765 5765 5765 5764 5764 5763 5763 5763 5762 5762 5762 5762 5761 5761 5760 5759 5758 5757 5756 5755 5754 5753 5751 5750 5748 5748 5747 5746 5745 5744 5743 5741
5764 5764 5765 5765 5765 5765 5765 5766 5765 5765 5764 5764 5763 5763 5763 5762 5762 5761 5761 5761 5761 5760 5760 5760 5759 5758 5758 5756 5756 5755 5753 5752 5751 5750 5749 5749 5748 5747 5746 5745 5744 5742 5741
5761 5763 5764 5764 5764 5764 5764 5764 5764 5763 5763 5762 5762 5761 5761 5761 5760 5760 5760 5759 5759 5759 5758 5758 5757 5756 5756 5754 5753 5753 5752 5751 5750 5749 5748 5748 5747 5746 5745 5744 5743 5742 5741
5763 5763 5764 5764 5764 5763 5763 5762 5762 5761 5761 5760 5760 5760 5759 5759 5758 5758 5758 5757 5757 5757 5756 5755 5755 5754 5753 5753 5752 5751 5750 5749 5749 5748 5748 5747 5746 5745 5744 5743 5742 5741 5741
5763 5764 5765 5765 5764 5763 5763 5762 5762 5761 5760 5759 5759 5759 5758 5757 5757 5756 5756 5756 5755 5755 5754 5753 5753 5753 5752 5751 5751 5750 5748 5747 5748 5748 5747 5747 5746 5745 5744 5743 5742 5741 5740
5765 5765 5765 5765 5765 5764 5763 5763 5762 5761 5760 5759 5758 5758 5757 5756 5755 5755 5755 5754 5754 5754 5753 5752 5751 5751 5750 5750 5750 5749 5747 5746 5746 5746 5746 5746 5745 5744 5743 5742 5741 5740 5740
5768 5767 5767 5766 5766 5765 5764 5764 5763 5763 5761 5759 5758 5757 5757 5756 5755 5754 5754 5753 5753 5752 5752 5751 5750 5749 5749 5749 5748 5748 5747 5746 5745 5745 5745 5744 5744 5743 5743 5742 5741 5740 5739
5771 5770 5769 5768 5767 5766 5766 5765 5764 5763 5762 5760 5759 5758 5757 5756 5754 5754 5753 5752 5752 5752 5751 5750 5749 5748 5748 5748 5746 5746 5745 5745 5744 5744 5743 5743 5742 5742 5742 5741 5740 5739 5739
5774 5772 5770 5771 5768 5767 5766 5766 5765 5764 5762 5761 5760 5759 5757 5756 5755 5754 5752 5752 5752 5751 5750 5749 5748 5746 5745 5745 5744 5744 5744 5744 5743 5743 5742 5741 5741 5741 5741 5740 5740 5739 5738
5777 5774 5771 5771 5769 5768 5767 5766 5765 5764 5763 5762 5760 5759 5758 5757 5755 5754 5753 5752 5751 5750 5749 5748 5746 5745 5743 5743 5742 5742 5742 5742 5742 5741 5741 5740 5740 5740 5739 5739 5739 5738 5737
5779 5777 5774 5771 5769 5768 5766 5765 5764 5763 5762 5761 5760 5759 5758 5757 5755 5754 5753 5751 5750 5749 5747 5746 5744 5743 5742 5741 5741 5740 5740 5740 5740 5739 5739 5739 5738 5738 5737 5737 5737 5736 5736
5780 5776 5775 5772 5770 5768 5765 5763 5761 5760 5761 5760 5760 5759 5758 5757 5756 5754 5752 5751 5749 5748 5746 5745 5743 5741 5739 5739 5737 5735 5737 5738 5737 5737 5737 5737 5736 5736 5735 5735 5734 5734 5734
5780 5777 5775 5774 5772 5770 5768 5766 5764 5763 5761 5760 5760 5759 5758 5757 5756 5754 5752 5751 5749 5747 5745 5744 5742 5739 5738 5738 5734 5730 5727 5729 5732 5735 5734 5734 5733 5733 5732 5732 5731 5731 5730
5781 5779 5778 5777 5774 5773 5771 5768 5765 5763 5761 5759 5758 5758 5758 5757 5756 5754 5752 5751 5749 5747 5744 5743 5741 5738 5735 5735 5734 5730 5724 5721 5725 5728 5730 5730 5730 5730 5729 5729 5728 5728 5728
5785 5783 5781 5778 5776 5774 5772 5768 5765 5760 5758 5758 5757 5757 5758 5757 5756 5754 5752 5750 5748 5746 5744 5742 5741 5739 5736 5732 5732 5731 5730 5728 5722 5721 5724 5726 5726 5726 5726 5726 5725 5725 5725
5789 5786 5783 5779 5776 5774 5772 5770 5766 5762 5760 5759 5758 5757 5757 5756 5755 5753 5751 5749 5747 5745 5743 5741 5740 5738 5736 5733 5731 5729 5727 5726 5725 5720 5717 5719 5721 5722 5722 5722 5722 5722 5721
5790 5787 5784 5780 5777 5775 5772 5770 5767 5763 5761 5758 5756 5755 5754 5754 5753 5751 5750 5748 5746 5744 5742 5740 5739 5737 5735 5733 5731 5729 5727 5725 5722 5720 5717 5715 5716 5718 5719 5719 5719 5718 5718